Tracking 19176 objects as of 27-May-2018
HD Live streaming from Space Station
objects crossing your sky now

COSMOS 622

Track COSMOS 622 now!
10-day predictions
COSMOS 622 is classified as:


NORAD ID: 6990
Int'l Code: 1973-104F
Perigee: 1,376.5 km
Apogee: 1,491.3 km
Inclination: 74.0 °
Period: 114.4 minutes
Semi major axis: 7804 km
RCS: 0.684 m2 (medium)
Launch date: December 19, 1973
Source: Commonwealth of Independent States (former USSR) (CIS)
Launch site: PLESETSK MISSILE AND SPACE COMPLEX (PKMTR)
aabbcc
Your satellite tracking list
Your tracking list is empty




NASA's NSSDC Master Catalog

Two Line Element Set (TLE):
1  6990U 73104F   18146.83869272 -.00000024 +00000-0 -46799-4 0  9991
2  6990 074.0285 270.8833 0073558 139.4627 338.6220 12.59070030042336
Source of the keplerian elements: AFSPC